Tracking 30923 objects as of 1-Jul-2025
HD Live streaming from Space Station
objects crossing your sky now

GJZ 04


10-day predictions


NORAD ID: 62293
Int'l Code: 2024-238D
Perigee: 971.5 km
Apogee: 1,005.1 km
Inclination: 59.9 °
Period: 104.7 minutes
Semi major axis: 7359 km
RCS: Unknown
Launch date: December 12, 2024
Source: People's Republic of China (PRC)
Launch site: Jiuquan Satellite Launch Center, China (JSC)
Your satellite tracking list
G-SAT
Track 1 satellite(s)




NASA's NSSDC Master Catalog

Two Line Element Set (TLE):
1 62293U 24238D   25181.59210081 -.00000069  00000-0  51728-4 0  9997
2 62293  59.9125 255.2022 0022821  77.1484 283.2071 13.75141419 27557
Source of the keplerian elements: AFSPC